Terug naar catalogus

BREEZE-M DEB

ActiefHEO
NORAD 32031·DEBRIS·🇷🇺 Russia

Gelanceerd Feb 28, 2006 vanaf Baikonur Cosmodrome

Loading…

Volgende Passages (komende 24 uur)

TLE

VersSource: Space-Track

Epoch: Sep 14, 2026, 03:39 UTC

1 32031U 06006J   26257.15270380  .00000158  00000-0  78132-3 0  9997
2 32031  51.4741 295.2281 5051221 343.4320   4.8109  5.17112714368803

Volg BREEZE-M DEB in realtime met AllMySat

Download on the App Store